Wind_Speed
9 10 11 12 13 13 14 14 14 14 13 12 10 9 8 7 6 5 4 3 3 2 3 3 4 5 7 8 9 11 12 12 14 14 14 13 13 12 11 10 10 10 10
7 9 10 11 12 12 13 14 14 14 13 12 11 10 8 7 6 5 4 3 3 2 2 3 3 4 5 7 8 9 11 12 13 15 15 15 15 15 13 13 12 12 11
6 7 9 10 10 11 12 13 13 13 13 12 11 10 9 8 7 5 4 3 2 2 1 1 2 3 4 6 7 9 10 12 13 14 15 16 17 17 16 15 15 14 13
5 6 8 8 9 9 10 11 12 12 12 12 11 11 10 9 8 6 5 3 3 2 1 0 2 3 4 6 7 8 9 10 11 13 14 15 16 16 16 15 15 15 14
5 5 6 7 7 8 9 9 10 10 10 11 11 10 10 9 8 7 6 4 3 3 2 1 1 3 4 6 7 8 9 9 10 12 13 14 14 15 15 15 15 15 15
5 5 5 6 6 6 6 7 7 8 8 9 9 9 9 8 8 7 7 6 5 4 3 3 2 3 4 5 7 8 9 10 10 11 12 12 12 12 13 13 13 13 14
6 5 5 5 5 4 4 5 5 6 6 7 7 7 7 7 7 7 7 7 6 5 4 4 3 3 3 4 6 7 8 9 10 10 11 11 10 10 10 10 10 10 12
6 5 5 4 3 3 3 2 3 3 4 4 5 5 5 5 6 6 6 6 6 6 5 4 4 3 3 4 5 6 7 8 9 9 9 10 9 9 9 10 9 9 9
5 5 4 4 3 2 2 1 1 1 2 3 3 3 4 4 5 5 6 6 7 6 6 5 4 3 3 4 5 5 6 7 8 8 9 8 8 8 8 9 9 9 9
4 4 4 4 4 4 4 3 4 3 3 3 4 4 4 4 5 5 5 6 7 7 7 6 5 4 4 4 5 6 6 6 7 8 9 9 9 9 9 9 10 10 9
3 3 4 4 5 5 6 6 7 7 6 6 6 6 6 6 6 6 6 6 6 6 7 7 6 5 5 5 5 5 5 6 6 7 8 9 9 9 9 10 10 10 10
4 4 5 5 6 7 8 9 9 10 10 10 10 9 9 8 8 8 8 7 7 7 7 8 7 6 6 6 5 5 5 5 5 7 8 8 9 9 9 10 11 11 11
7 7 7 7 8 8 9 10 11 12 12 12 12 11 11 11 10 11 10 9 9 8 8 8 8 8 7 7 7 6 6 5 4 7 7 8 9 9 10 11 11 12 12
10 10 10 10 10 11 11 12 13 14 14 14 14 14 13 13 12 12 12 11 10 10 10 10 9 9 8 7 7 7 7 6 5 7 8 8 9 10 10 11 12 12 12
13 13 13 13 13 13 14 15 15 16 16 17 17 16 16 15 14 14 13 13 12 12 12 11 10 10 10 9 8 8 8 7 7 8 9 10 10 11 11 11 12 12 12
17 17 16 16 15 15 15 16 16 17 18 18 19 19 18 17 17 17 16 15 14 14 14 13 12 11 11 11 10 10 10 9 9 9 10 11 12 12 13 13 13 13 14
22 20 19 19 18 18 18 18 18 18 19 19 20 20 20 20 19 18 17 17 16 16 16 15 14 13 13 12 12 12 11 11 11 11 11 11 13 13 14 15 15 15 16
26 24 23 22 22 21 21 21 21 20 20 19 20 21 21 21 21 20 20 19 18 17 17 17 16 15 14 13 13 13 13 13 12 12 12 12 13 14 15 16 16 17 18
29 28 27 25 25 25 24 23 23 22 22 21 21 22 22 22 22 22 22 21 21 20 19 19 18 17 16 15 15 15 15 15 15 14 14 14 14 14 16 17 18 19 20
33 32 31 29 28 27 27 26 26 26 25 24 23 23 24 23 23 23 23 23 23 22 21 21 20 20 19 18 17 17 17 17 17 17 17 17 16 16 17 18 18 20 21
36 35 35 34 32 31 30 30 30 30 29 27 25 24 25 25 25 25 26 26 25 25 24 23 23 22 21 20 20 19 19 19 19 20 20 20 19 18 19 19 19 20 21
38 38 37 36 35 34 34 34 34 34 32 29 27 26 26 27 27 28 28 28 27 27 27 25 24 23 22 22 22 21 21 21 21 21 22 23 22 21 22 21 21 21 22
39 39 38 38 37 37 36 36 36 36 34 32 30 30 30 30 30 30 30 30 30 29 28 27 26 24 23 23 23 22 22 22 23 23 23 24 25 23 24 24 24 23 22
38 38 38 38 38 38 37 37 37 38 36 35 34 33 32 33 32 32 32 32 32 31 30 29 27 26 25 24 24 24 24 24 25 25 25 25 26 26 25 25 26 25 23
36 36 37 37 37 37 38 38 38 40 40 39 37 37 36 36 36 36 35 34 32 31 32 31 29 27 26 25 26 25 25 25 26 25 26 26 26 26 26 25 25 26 25
35 35 35 36 36 36 36 36 37 39 39 40 41 40 39 39 39 38 36 34 32 31 31 31 30 28 27 26 26 26 26 26 26 26 26 26 26 25 25 25 25 26 26
Wind_Direction
85 87 88 87 87 85 81 79 75 71 68 64 61 59 58 59 61 68 77 83 95 115 134 145 156 170 185 194 204 209 212 216 219 219 219 222 227 232 236 241 250 259 265
94 92 93 89 89 87 83 80 77 74 70 67 64 60 57 56 56 59 67 76 85 101 128 153 166 183 198 207 214 219 223 226 227 227 230 233 236 239 243 248 251 257 263
110 101 100 95 92 89 85 82 79 75 71 68 65 62 58 55 53 53 54 58 66 79 113 162 188 204 210 216 221 228 232 235 234 233 236 238 239 242 246 250 252 255 258
128 114 106 101 97 92 87 83 78 74 70 68 65 61 58 55 51 48 46 43 41 36 25 236 225 230 231 229 229 234 237 237 236 236 237 242 241 244 246 249 251 251 254
147 131 116 107 102 97 90 85 79 74 69 66 62 59 56 53 51 47 43 38 29 17 357 319 278 252 245 239 237 239 239 239 238 240 244 246 246 246 247 247 249 250 252
159 147 132 119 113 104 95 87 80 73 68 62 58 55 52 48 45 43 41 36 27 17 4 345 314 279 259 248 244 244 245 243 243 243 245 249 247 248 247 244 247 250 252
166 159 152 140 129 119 103 88 76 67 61 55 51 47 44 42 38 35 33 32 26 18 8 357 339 306 278 261 254 253 254 251 246 244 246 251 250 247 241 239 244 250 250
175 174 172 168 161 148 130 101 74 58 47 40 37 34 31 28 25 22 20 23 22 20 14 3 349 328 298 278 267 263 259 254 250 249 250 257 254 249 245 243 243 254 256
180 186 191 195 201 210 215 238 308 3 4 360 1 4 3 1 2 6 7 11 14 14 10 3 351 330 306 286 276 272 268 258 252 252 257 260 262 259 253 247 246 254 258
188 196 209 224 237 249 258 270 276 287 297 302 306 311 315 320 325 332 344 352 359 3 2 356 347 329 306 290 284 282 277 267 256 254 259 260 264 262 256 253 251 254 256
217 219 233 248 259 267 271 276 279 280 282 283 284 286 287 291 295 298 310 324 336 344 347 344 336 327 312 299 294 290 287 279 269 263 263 263 265 263 262 261 259 258 257
256 255 260 266 274 279 279 281 282 282 281 279 278 278 276 277 278 283 291 301 314 323 328 330 326 320 314 305 296 292 291 287 280 272 270 267 267 267 270 268 262 263 261
271 270 272 278 283 287 289 288 287 286 284 280 278 276 272 270 270 274 280 289 300 307 313 317 317 315 315 311 301 294 291 290 286 276 275 272 270 269 271 270 266 265 262
272 274 276 279 283 289 292 291 291 290 287 282 278 275 271 268 266 267 272 278 289 296 302 304 309 312 311 308 305 301 296 292 290 282 281 279 275 273 275 275 268 265 264
272 275 279 281 285 289 290 290 292 292 289 285 280 276 273 270 268 265 264 269 278 287 293 294 298 303 307 306 305 305 301 297 291 285 285 281 278 276 275 275 271 268 263
271 275 278 282 284 288 290 292 291 290 288 286 283 279 275 270 267 264 262 264 269 276 283 286 289 292 300 303 302 304 303 300 296 288 284 281 278 276 274 272 270 268 265
273 274 276 279 282 285 287 289 289 289 289 285 283 281 276 271 268 264 261 261 265 271 277 280 281 285 290 294 296 299 299 299 299 294 290 285 281 277 274 272 269 266 264
274 274 274 276 279 281 283 285 287 287 287 285 283 282 277 272 268 265 260 258 260 267 272 274 275 278 279 282 286 292 295 296 297 297 295 289 284 281 279 274 271 267 264
272 273 273 273 276 278 279 281 283 285 286 284 282 281 279 273 268 265 260 257 258 263 268 269 270 270 271 274 279 284 287 290 292 294 292 290 288 286 281 276 272 269 266
269 270 272 272 273 276 278 278 281 283 283 283 281 279 278 273 269 266 262 258 258 260 263 264 266 267 266 268 273 278 281 283 286 289 287 286 286 285 281 278 275 270 267
267 268 270 271 272 273 274 276 278 280 280 281 283 279 278 274 269 266 264 260 259 259 260 262 263 264 264 266 270 275 276 279 281 284 286 284 286 285 280 279 276 272 269
265 267 268 270 271 271 272 273 275 277 277 278 281 280 279 276 274 266 263 262 262 260 257 258 260 260 262 264 267 272 273 275 275 277 282 283 283 284 282 279 275 271 269
263 264 265 267 268 269 270 271 272 272 274 276 280 280 281 280 279 273 265 264 264 262 256 255 256 257 259 262 265 269 272 272 274 275 278 280 282 283 282 282 278 272 269
260 260 261 263 265 267 268 268 269 269 270 273 277 279 281 282 280 279 272 269 265 261 256 254 254 255 257 259 263 267 270 272 275 277 276 278 281 283 282 281 281 275 269
257 257 259 260 262 264 266 267 267 268 269 270 273 277 278 279 280 279 277 275 271 264 257 254 253 253 255 258 262 265 268 271 273 275 276 277 279 280 280 279 280 277 271
254 254 256 258 260 262 264 265 265 267 268 268 270 273 276 278 280 280 278 276 271 266 261 255 253 253 254 258 260 264 267 270 273 274 276 278 279 278 279 278 276 276 271
Height
5907 5906 5906 5906 5905 5905 5904 5903 5902 5901 5901 5900 5899 5898 5898 5897 5897 5896 5896 5897 5897 5897 5898 5899 5900 5901 5902 5904 5905 5906 5908 5909 5910 5912 5913 5914 5915 5916 5917 5918 5919 5919 5919
5908 5907 5907 5907 5907 5906 5906 5905 5904 5903 5902 5902 5901 5900 5899 5899 5898 5898 5898 5898 5898 5898 5899 5899 5900 5901 5902 5903 5904 5905 5906 5907 5909 5910 5911 5912 5913 5914 5915 5916 5917 5918 5918
5908 5908 5908 5908 5908 5908 5907 5907 5906 5905 5904 5903 5903 5902 5901 5901 5900 5899 5899 5899 5899 5899 5899 5900 5900 5901 5902 5902 5903 5904 5905 5906 5907 5908 5909 5910 5910 5912 5913 5914 5915 5916 5917
5909 5909 5909 5909 5909 5909 5909 5908 5907 5907 5906 5905 5904 5904 5903 5902 5902 5901 5900 5900 5899 5899 5900 5900 5900 5901 5901 5902 5903 5903 5904 5905 5906 5907 5907 5907 5907 5909 5911 5912 5913 5914 5915
5910 5910 5910 5910 5910 5910 5910 5909 5909 5908 5908 5907 5906 5905 5905 5904 5903 5902 5901 5901 5900 5900 5900 5900 5900 5901 5901 5901 5902 5903 5903 5904 5904 5905 5905 5905 5906 5907 5908 5910 5911 5912 5913
5910 5911 5911 5911 5911 5911 5911 5910 5910 5910 5909 5908 5908 5907 5906 5905 5904 5903 5902 5902 5901 5901 5900 5900 5900 5900 5901 5901 5901 5901 5902 5902 5903 5903 5904 5904 5904 5906 5907 5908 5909 5910 5912
5910 5911 5911 5911 5911 5911 5911 5911 5911 5911 5910 5910 5909 5908 5907 5907 5906 5905 5904 5903 5902 5901 5901 5900 5900 5900 5900 5900 5900 5900 5901 5901 5902 5902 5903 5903 5903 5905 5905 5907 5908 5909 5910
5910 5911 5911 5911 5911 5911 5911 5911 5911 5911 5911 5910 5910 5909 5909 5908 5907 5906 5905 5904 5903 5902 5901 5901 5900 5900 5900 5899 5899 5899 5899 5900 5900 5901 5902 5902 5903 5904 5905 5906 5907 5908 5909
5910 5910 5911 5911 5911 5911 5911 5911 5911 5911 5911 5910 5910 5909 5909 5908 5908 5907 5906 5905 5904 5903 5902 5901 5900 5899 5899 5899 5898 5898 5899 5899 5900 5901 5901 5902 5902 5903 5904 5905 5906 5907 5908
5910 5910 5911 5911 5911 5911 5911 5911 5911 5911 5910 5910 5910 5909 5909 5908 5908 5907 5906 5905 5904 5903 5902 5901 5900 5899 5899 5898 5898 5898 5898 5898 5899 5900 5900 5901 5902 5902 5903 5904 5905 5906 5907
5910 5910 5910 5910 5910 5910 5910 5910 5909 5909 5909 5909 5909 5908 5908 5908 5907 5907 5906 5905 5904 5903 5902 5901 5900 5899 5898 5898 5897 5897 5897 5897 5898 5899 5899 5900 5901 5901 5902 5903 5904 5905 5906
5909 5909 5909 5909 5909 5909 5908 5908 5908 5908 5908 5907 5907 5907 5907 5907 5906 5905 5905 5904 5904 5903 5902 5901 5900 5899 5898 5897 5897 5896 5896 5896 5897 5898 5897 5898 5899 5900 5901 5901 5902 5903 5904
5908 5908 5908 5908 5907 5907 5906 5906 5906 5906 5906 5905 5905 5905 5905 5905 5905 5904 5903 5903 5903 5902 5901 5901 5900 5899 5898 5897 5896 5896 5896 5896 5897 5897 5896 5897 5898 5898 5899 5900 5900 5901 5902
5906 5905 5905 5906 5905 5905 5904 5904 5903 5903 5903 5902 5902 5902 5902 5902 5902 5902 5902 5901 5901 5901 5900 5899 5899 5898 5897 5897 5896 5895 5895 5895 5896 5895 5895 5896 5896 5897 5898 5898 5899 5899 5900
5903 5903 5902 5902 5902 5902 5901 5901 5900 5900 5899 5899 5899 5899 5899 5899 5899 5899 5899 5899 5899 5899 5898 5898 5897 5897 5896 5896 5895 5895 5894 5894 5894 5894 5894 5894 5895 5895 5896 5897 5897 5898 5898
5899 5899 5899 5899 5898 5898 5898 5897 5897 5896 5896 5896 5895 5895 5895 5895 5895 5895 5896 5896 5896 5896 5896 5896 5895 5895 5895 5894 5894 5893 5893 5893 5892 5892 5892 5892 5893 5893 5894 5894 5895 5896 5896
5894 5895 5895 5895 5894 5894 5894 5893 5893 5893 5892 5892 5892 5892 5892 5892 5892 5892 5892 5892 5893 5893 5893 5892 5892 5892 5892 5892 5892 5891 5891 5890 5890 5890 5890 5890 5890 5890 5891 5892 5892 5893 5894
5889 5890 5890 5891 5890 5890 5889 5889 5888 5888 5888 5888 5888 5887 5888 5888 5888 5888 5888 5888 5889 5889 5889 5889 5889 5889 5889 5889 5889 5889 5888 5888 5887 5888 5888 5888 5887 5888 5888 5888 5889 5890 5891
5883 5883 5884 5885 5885 5885 5885 5884 5884 5884 5883 5883 5883 5883 5883 5883 5883 5884 5884 5884 5885 5885 5885 5885 5886 5886 5886 5886 5886 5886 5885 5885 5884 5884 5885 5885 5885 5885 5884 5884 5885 5886 5887
5877 5877 5877 5878 5880 5879 5880 5879 5879 5879 5878 5878 5879 5879 5878 5878 5879 5879 5879 5880 5880 5881 5881 5881 5881 5882 5882 5882 5882 5882 5882 5881 5881 5881 5881 5881 5881 5881 5881 5880 5881 5881 5882
5869 5870 5871 5871 5873 5873 5874 5874 5873 5873 5873 5873 5873 5873 5873 5873 5874 5874 5874 5874 5875 5876 5876 5876 5877 5877 5877 5877 5878 5878 5878 5877 5877 5877 5876 5876 5877 5877 5877 5877 5877 5877 5877
5861 5862 5863 5863 5865 5866 5866 5867 5867 5865 5865 5867 5867 5867 5867 5867 5867 5868 5868 5868 5869 5869 5870 5870 5871 5872 5872 5873 5873 5873 5873 5874 5873 5873 5872 5871 5871 5872 5871 5872 5872 5872 5872
5851 5853 5854 5855 5856 5857 5858 5859 5859 5858 5857 5858 5860 5860 5860 5860 5860 5861 5861 5861 5862 5862 5863 5864 5865 5866 5866 5867 5868 5868 5868 5868 5868 5868 5867 5867 5866 5866 5866 5865 5866 5867 5867
5841 5843 5844 5845 5847 5848 5849 5850 5850 5849 5848 5849 5851 5852 5853 5853 5853 5854 5854 5854 5854 5855 5856 5858 5859 5859 5860 5861 5862 5862 5863 5863 5863 5862 5862 5862 5861 5860 5860 5860 5859 5859 5861
5831 5833 5834 5836 5837 5838 5840 5841 5841 5841 5839 5840 5842 5843 5844 5845 5846 5845 5845 5846 5846 5847 5849 5850 5851 5852 5853 5854 5855 5856 5856 5856 5856 5856 5856 5856 5856 5855 5854 5854 5854 5853 5854
5820 5823 5825 5827 5828 5830 5831 5832 5833 5833 5833 5833 5834 5835 5836 5837 5837 5837 5838 5838 5838 5839 5841 5842 5844 5845 5846 5848 5848 5849 5849 5849 5849 5849 5849 5849 5849 5849 5849 5848 5848 5848 5848